Details From SCBA - Balmaceda
To SCTE - El Tepual
Flight Number -
Tags decoded
Created
Modified
Stats Distance 276 nm / 511 km
Max Altitude 0 ft / 0 m
Waypoints 5
Social Downloads 2
Likes 0
Share VATSIM

Download

Looking for another format? Having issues loading an existing format? Contact us
Advertisement - Login to hide

Notes

Requested: SCBA ARGOS ISLAB GUTIN SILAS SCTE Unmatched points: ISLAB

Route

SCBA ARGOS GUTIN SILAS SCTE

ID Type Via Altitude Latitude Longitude Leg Dist Tot Dist Heading (true) Name
O SCBA APT - 0 ft / 0 m -45.91602˚ -71.68947˚ - 0 nm - Balmaceda
ARGOS FIX - 0 ft / 0 m -45.26121˚ -71.91066˚ 40 nm 40 nm 347° / 347° -
GUTIN FIX - 0 ft / 0 m -42.40667˚ -72.81250˚ 175 nm 216 nm 347° / 347° -
SILAS FIX - 0 ft / 0 m -41.61670˚ -73.10028˚ 49 nm 265 nm 345° / 345° -
O SCTE APT - 0 ft / 0 m -41.43888˚ -73.09395˚ 10 nm 276 nm 2° / 2° El Tepual

Altitude Profile

Advertisement - Login to hide

Weather


0- 5 10 15 20 25 30 35+ Temperature / ° C

Clouds and Precipitation
Forecast for 2018-05-22 12:00 UTC. Updated an hour ago

Ground ~20,000 ft ~40,000 ft Winds

SCBA

Details ICAO SCBA (BBA)
Name Balmaceda
Region Chile
Timezone America/Santiago (UTC-4.0)
Stats Elevation 1,654 ft / 504 m (AMSL)
Location -45.916025° -71.689470°
Runways 1
Magnetic Variation 9.844° E

METAR

SCBA 221200Z AUTO 31016KT CAVOK 06/03 Q1016

Decode

TAF

TAF SCBA 221045Z 2212/2312 31018KT 9999 BKN040 TX10/2218Z TN04/2306Z BECMG 2214/2216 31025KT SCT050 BECMG 2220/2222 31013KT

Decode

Departure Runways

ID Width Length Bearing (true) Bearing (mag) Surface Threshold Offset Overrun Length
09 148 ft / 45 m 8,213 ft / 2,503 m 89.01° 79.17° Asphalt 0 ft / 0 m 180 ft / 55 m
27 148 ft / 45 m 8,213 ft / 2,503 m 268.99° 259.15° Asphalt 0 ft / 0 m 190 ft / 58 m

SCTE

Details ICAO SCTE (PMC)
Name El Tepual
Region Chile
Timezone America/Santiago (UTC-4.0)
Stats Elevation 293 ft / 89 m (AMSL)
Location -41.438884° -73.093954°
Runways 1
Magnetic Variation 8.438° E

METAR

SCTE 221200Z 06003KT 0700 R17/0900D FG OVC002 02/02 Q1025 NOSIG

Decode

TAF

TAF SCTE 221051Z 2212/2312 VRB02KT 0500 FG SCT001 TN02/2212Z TX12/2219Z TEMPO 2212/2214 1500 BR BKN002 BECMG 2214/2216 15007KT 9999 NSW SCT060 BECMG 2300/2302 20005KT BECMG 2305/2307 VRB02KT 0500 FG OVC001

Decode

Destination Runways

ID Width Length Bearing (true) Bearing (mag) Surface Threshold Offset Overrun Length
17 148 ft / 45 m 8,702 ft / 2,652 m 172.00° 163.56° Concrete 0 ft / 0 m 0 ft / 0 m
35 148 ft / 45 m 8,702 ft / 2,652 m 352.00° 343.56° Concrete 0 ft / 0 m 0 ft / 0 m

Approach Navaids

Runway Type Ident Frequency Range Bearing (true) Bearing (mag) Slope Elevation
35 Localiser IMON 110.10 MHz 18 nm / 33 km 351.94° 343.51° - 293 ft / 89 m (AMSL)
35 Glidescope IMON 110.10 MHz 10 nm / 19 km 352.00° 343.56° 3.00° 293 ft / 89 m (AMSL)
35 DME IMON 115.70 MHz 18 nm / 33 km - - - 293 ft / 89 m (AMSL)

Popular Alternatives